This demonstration page uses our WeatherBlox Daily Observations layout. Learn more.

38.89511, -77.03637

Hourly Observations for September 24, 2019

Temp ( °F °C ) Dew Point ( °F °C ) Humidity (%) Winds ( mph kmh ) Pressure ( in mb ) Visibility ( mi km ) Precip ( " mm )
12:52 am 00:52 Mostly Clear 78 25.6 64 17.8 62 62 WNW 8 13 29.83 1010 10 16.09344 0 0
1:52 am 01:52 Mostly Clear 76 24.4 64 17.8 67 67 NW 10 17 29.83 1010 10 16.09344 0 0
2:52 am 02:52 Mostly Clear 75 23.9 64 17.8 69 69 NNW 9 15 29.83 1010 10 16.09344 0 0
3:52 am 03:52 Mostly Clear 73 22.8 63 17.2 71 71 N 6 9 29.83 1010 10 16.09344 0 0
4:52 am 04:52 Clear 72 22.2 62 16.7 71 71 NNW 10 17 29.85 1011 10 16.09344 0 0
5:52 am 05:52 Clear 71 21.7 60 15.6 68 68 NNW 9 15 29.85 1011 10 16.09344 0 0
6:52 am 06:52 Mostly Clear 70 21.1 56 13.3 61 61 NW 7 11 29.88 1012 10 16.09344 0 0
7:52 am 07:52 Mostly Sunny 72 22.2 55 12.8 55 55 NW 10 17 29.88 1012 10 16.09344 0 0
8:52 am 08:52 Mostly Sunny 73 22.8 55 12.8 53 53 WNW 12 19 29.91 1013 10 16.09344 0 0
9:52 am 09:52 Mostly Sunny 75 23.9 53 11.7 46 46 NW 10 17 29.91 1013 10 16.09344 0 0
10:52 am 10:52 Partly Cloudy 77 25 52 11.1 42 42 NW 15 24 29.91 1013 10 16.09344 0 0
11:52 am 11:52 Partly Cloudy 79 26.1 51 10.6 38 38 N 14 22 29.91 1013 10 16.09344 0 0
12:52 pm 12:52 Partly Cloudy 80 26.7 51 10.6 37 37 NNW 16 26 29.88 1012 10 16.09344 0 0
1:52 pm 13:52 Partly Cloudy 81 27.2 51 10.6 35 35 W 10 17 29.88 1012 10 16.09344 0 0
2:52 pm 14:52 Partly Cloudy 81 27.2 50 10 34 34 NNW 15 24 29.85 1011 10 16.09344 0 0
3:52 pm 15:52 Mostly Cloudy 82 27.8 50 10 33 33 WNW 15 24 29.85 1011 10 16.09344 0 0
4:52 pm 16:52 Mostly Cloudy 81 27.2 49 9.4 33 33 NW 15 24 29.85 1011 10 16.09344 0 0
5:52 pm 17:52 Mostly Cloudy 80 26.7 48 8.9 33 33 NNW 15 24 29.85 1011 10 16.09344 0 0
6:52 pm 18:52 Partly Cloudy 77 25 48 8.9 36 36 NNW 14 22 29.85 1011 10 16.09344 0 0
7:52 pm 19:52 Partly Cloudy 75 23.9 48 8.9 39 39 NW 8 13 29.88 1012 10 16.09344 0 0
8:52 pm 20:52 Mostly Cloudy 73 22.8 49 9.4 43 43 NNW 9 15 29.88 1012 10 16.09344 0 0
9:52 pm 21:52 Partly Cloudy 71 21.7 50 10 47 47 NNW 9 15 29.91 1013 10 16.09344 0 0
10:52 pm 22:52 Mostly Clear 70 21.1 49 9.4 47 47 NW 8 13 29.91 1013 10 16.09344 0 0
11:52 pm 23:52 Mostly Clear 69 20.6 49 9.4 49 49 NW 7 11 29.91 1013 10 16.09344 0 0

Powered by AerisWeather